FW9022 Weather Reports


time (UTC)temp
C
wind
direction
speed
KPH
gust
KPH
rain 1hr
cm
rain 24hr
cm
rain mn
cm
humidity
%
barometer
mb
20260505083820 7 150 0.0 0.0 0.00 0.00 0.00 89 1014.7
20260505082834 7 150 0.0 0.0 0.00 0.00 0.00 88 1014.7
20260505081828 7 150 0.0 0.0 0.00 0.00 0.00 88 1014.7
20260505080838 8 150 0.0 0.0 0.00 0.00 0.00 87 1014.5
20260505075818 8 150 0.0 0.0 0.00 0.00 0.00 87 1015.1
20260505074853 8 149 0.0 0.0 0.00 0.00 0.00 86 1015.1
20260505073829 8 150 0.0 0.0 0.00 0.00 0.00 86 1015.0
20260505072823 8 150 0.0 0.0 0.00 0.00 0.00 85 1014.9
20260505071834 9 150 0.0 0.0 0.00 0.00 0.00 85 1014.9
20260505070838 9 150 0.0 0.0 0.00 0.00 0.00 83 1014.9
20260505065822 10 150 0.0 1.6 0.00 0.00 0.00 83 1015.3
20260505064835 10 150 1.6 4.8 0.00 0.00 0.00 82 1015.3
20260505063831 10 204 0.0 3.2 0.00 0.00 0.00 81 1015.3
20260505062845 11 230 0.0 0.0 0.00 0.00 0.00 80 1015.0
20260505061822 11 231 0.0 1.6 0.00 0.00 0.00 79 1015.0
20260505060848 11 231 0.0 1.6 0.00 0.00 0.00 78 1015.3
20260505055827 11 230 0.0 3.2 0.00 0.00 0.00 76 1015.2
20260505054826 12 206 0.0 3.2 0.00 0.00 0.00 73 1015.2
20260505053820 13 200 0.0 1.6 0.00 0.00 0.00 71 1015.0
20260505052855 13 200 0.0 0.0 0.00 0.00 0.00 68 1014.8
20260505051828 15 200 0.0 0.0 0.00 0.00 0.00 64 1014.8
20260505050837 16 200 0.0 0.0 0.00 0.00 0.00 62 1014.8
20260505040840 17 190 0.0 8.0 0.00 0.00 0.00 53 1014.9
20260505035845 17 188 1.6 4.8 0.00 0.00 0.00 53 1014.9
20260505034818 17 236 3.2 9.7 0.00 0.00 0.00 53 1014.9
20260505033832 17 182 1.6 3.2 0.00 0.00 0.00 55 1015.1
20260505032826 17 158 1.6 16.1 0.00 0.00 0.00 56 1015.4
20260505031825 16 213 1.6 11.3 0.00 0.00 0.00 58 1015.4
20260505030849 16 181 0.0 3.2 0.00 0.00 0.00 60 1015.7
20260505025829 16 181 0.0 3.2 0.00 0.00 0.00 60 1015.5
20260505024827 17 161 0.0 3.2 0.00 0.00 0.00 57 1015.5
20260505023820 17 153 0.0 4.8 0.00 0.00 0.00 55 1015.3
20260505022834 18 152 1.6 4.8 0.00 0.00 0.00 52 1015.2
20260505021828 18 219 4.8 8.0 0.00 0.00 0.00 52 1015.2
20260505020836 18 226 0.0 9.7 0.00 0.00 0.00 53 1015.4
20260505015836 18 244 0.0 11.3 0.00 0.00 0.00 53 1015.0
20260505014830 18 210 1.6 6.4 0.00 0.00 0.00 54 1015.0
20260505013827 18 220 0.0 6.4 0.00 0.00 0.00 54 1014.8
20260505012821 18 211 0.0 8.0 0.00 0.00 0.00 53 1014.5
20260505011834 18 225 1.6 4.8 0.00 0.00 0.00 54 1014.5
20260505010858 18 212 0.0 9.7 0.00 0.00 0.00 54 1014.1
20260505005837 18 238 4.8 11.3 0.00 0.00 0.00 53 1014.0
20260505004831 19 233 4.8 9.7 0.00 0.00 0.00 52 1014.0
20260505003845 19 153 3.2 14.5 0.00 0.00 0.00 52 1013.5
20260505002817 20 207 1.6 8.0 0.00 0.00 0.00 51 1013.4
20260505001855 20 222 0.0 8.0 0.00 0.00 0.00 50 1013.4
20260505000858 20 279 0.0 9.7 0.00 0.00 0.00 49 1013.0
20260504235836 21 232 1.6 12.9 0.00 0.00 0.00 48 1013.7
20260504234831 21 211 1.6 11.3 0.00 0.00 0.00 47 1013.7
20260504233828 21 134 1.6 11.3 0.00 0.00 0.00 47 1013.5
20260504232821 21 220 1.6 12.9 0.00 0.00 0.00 46 1013.3
20260504231835 22 215 3.2 22.5 0.00 0.00 0.00 45 1013.3
20260504230844 22 138 1.6 17.7 0.00 0.00 0.00 45 1012.4
20260504225842 22 188 8.0 20.9 0.00 0.00 0.00 44 1012.4
20260504224835 22 156 1.6 11.3 0.00 0.00 0.00 44 1012.4
20260504223829 22 227 4.8 14.5 0.00 0.00 0.00 43 1012.5
20260504222826 22 213 4.8 9.7 0.00 0.00 0.00 42 1012.5
20260504221819 22 125 8.0 37.0 0.00 0.00 0.00 42 1012.5
20260504220903 22 213 9.7 30.6 0.00 0.00 0.00 41 1012.4
20260504215820 23 136 8.0 22.5 0.00 0.00 0.00 41 1012.3
20260504214818 23 213 8.0 20.9 0.00 0.00 0.00 40 1012.3
20260504213833 23 202 6.4 22.5 0.00 0.00 0.00 39 1012.3
20260504212828 23 251 4.8 17.7 0.00 0.00 0.00 38 1012.4
20260504211827 23 115 3.2 27.4 0.00 0.00 0.00 38 1012.4
20260504210912 23 159 6.4 29.0 0.00 0.00 0.00 37 1013.2
20260504205830 24 103 6.4 22.5 0.00 0.00 0.00 35 1013.3
20260504204824 24 146 8.0 17.7 0.00 0.00 0.00 34 1013.3
20260504203842 24 157 1.6 14.5 0.00 0.00 0.00 33 1013.5
20260504202836 24 132 6.4 17.7 0.00 0.00 0.00 32 1013.6
20260504201831 24 225 3.2 24.1 0.00 0.00 0.00 33 1013.6
20260504200836 24 136 4.8 11.3 0.00 0.00 0.00 31 1013.8
20260504195819 23 301 8.0 14.5 0.00 0.00 0.00 30 1014.1
20260504194833 24 133 4.8 11.3 0.00 0.00 0.00 31 1014.1
20260504193827 23 84 1.6 14.5 0.00 0.00 0.00 32 1014.2
20260504192841 23 73 0.0 8.0 0.00 0.00 0.00 33 1014.5
20260504191818 23 123 3.2 12.9 0.00 0.00 0.00 35 1014.5
20260504190903 23 110 1.6 14.5 0.00 0.00 0.00 37 1014.8
20260504185821 23 5 0.0 16.1 0.00 0.00 0.00 36 1014.8
20260504184819 23 74 1.6 11.3 0.00 0.00 0.00 38 1014.8
20260504183833 23 254 1.6 8.0 0.00 0.00 0.00 38 1015.0
20260504182827 22 74 1.6 9.7 0.00 0.00 0.00 39 1015.3
20260504181821 22 167 3.2 14.5 0.00 0.00 0.00 38 1015.3
20260504180850 22 98 3.2 8.0 0.00 0.00 0.00 39 1015.4
20260504175830 22 76 3.2 4.8 0.00 0.00 0.00 41 1015.4
20260504174825 22 18 3.2 9.7 0.00 0.00 0.00 40 1015.4
20260504173823 22 111 1.6 4.8 0.00 0.00 0.00 41 1015.7
20260504172818 22 33 1.6 4.8 0.00 0.00 0.00 40 1015.1
20260504171833 21 72 1.6 4.8 0.00 0.00 0.00 43 1015.1
20260504170837 21 36 3.2 4.8 0.00 0.00 0.00 43 1015.4
20260504150835 17 46 1.6 4.8 0.00 0.00 0.00 49 1017.4
20260504140838 15 205 0.0 1.6 0.00 0.00 0.00 56 1017.5